Location: Navalespino
(40.5894°N, 4.2660°W)
Time: 19:29:14
(UTC+00:00)

Cosmos 1354 Rocket - Pass Details

Date: 18 April 2024
Orbit: 762 x 781 km, 74.0° (Epoch: 18 May)

Event Time Altitude Azimuth Distance (km) Brightness Sun altitude
Rises 20:36:13 0° 344° (NNW) 3,276 8.0 -17.5°
Reaches altitude 10° 20:38:40 10° 349° (N) 2,344 7.1 -17.9°
Maximum altitude 20:43:54 57° 68° (ENE) 918 4.2 -18.7°
Enters shadow 20:45:51 36° 128° (SE) 1,217 4.5 -19.0°
